Regional Weather Roundup
Issued by NWS Cleveland, OH

Home | Current Version | Previous Version | Text Only | Print | Product List | Glossary Off
Versions: 1 2 3 4 5 6 7 8 9 10 11 12 13 14 15 16 17 18 19 20 21 22 23 24 25 26 27 28 29 30 31 32 33 34 35 36 37 38 39 40 41 42 43 44 45 46 47 48 49 50

000
ASUS41 KCLE 170910
RWRCLE
OHIO REGIONAL WEATHER ROUNDUP
NATIONAL WEATHER SERVICE CLEVELAND, OH
500 AM EDT WED SEP 17 2014

NOTE: "FAIR" INDICATES FEW OR NO CLOUDS BELOW 12,000 FEET WITH NO
SIGNIFICANT WEATHER AND/OR OBSTRUCTIONS TO VISIBILITY.

OHZ001>008-015>018-024>027-034-035-043-044-171000-
   NORTHWEST OHIO

CITY           SKY/WX    TMP DP  RH WIND       PRES   REMARKS
DEFIANCE       CLEAR     43  41  93 CALM      30.08F
FINDLAY        CLEAR     46  42  86 CALM      30.06F
TOLEDO EXPRESS CLEAR     44  42  93 CALM      30.07S
TOLEDO EXEC    CLEAR     46  42  86 CALM      30.07F
LIMA           CLEAR     45  42  89 CALM      30.07F
$$

OHZ009>014-019>023-028>033-038-089-171000-
   NORTHEAST OHIO

CITY           SKY/WX    TMP DP  RH WIND       PRES   REMARKS
CLE-HOPKINS    PTCLDY    47  44  90 CALM      30.09S
CLE-LAKEFRONT  MOCLDY    51  46  83 SE8       30.05F
CUY CO. ARPT   NOT AVBL
LORAIN-ELYRIA  CLEAR     48  44  86 SW3       30.08S
ASHTABULA      CLOUDY    47  45  93 CALM      30.07F
AKRON-CANTON   CLEAR     49  45  86 CALM      30.07F
WOOSTER        FOG       43  41  93 CALM      30.08F VSB 1/4
MANSFIELD      CLEAR     45  45 100 S3        30.07F
YOUNGSTOWN     PTCLDY    46  44  93 CALM      30.07F FOG
$$

OHZ042-051>053-060>062-070>072-077>081-171000-
  SOUTHWEST OHIO

CITY           SKY/WX    TMP DP  RH WIND       PRES   REMARKS
CINC-COVINGTON CLEAR     48  46  93 CALM      30.08S FOG
CINC-LUNKEN    PTCLDY    46  45  96 CALM      30.09F FOG
HAMILTON       CLOUDY    46  45  96 CALM      30.09F FOG
DAYTON         CLEAR     46  45  96 CALM      30.09S
WRIGHT-PAT AFB FOG       44  44  99 CALM      30.08S VSB 3/4
DAYTON GENERAL PTCLDY    47  45  93 CALM      30.07F
WILMINGTON     CLOUDY    45  44  97 CALM      30.08S FOG
$$

OHZ036-037-039>041-045>050-054>059-063>069-073>076-082>088-171000-
  CENTRAL AND SOUTHEAST OHIO

CITY           SKY/WX    TMP DP  RH WIND       PRES   REMARKS
COLUMBUS       MOCLDY    50  45  83 CALM      30.08S
OSU AIRPORT    MOCLDY    47  45  93 CALM      30.08S FOG
BOLTON FIELD   CLOUDY    46  46  99 CALM      30.08F FOG
RICKENBACK AFB CLOUDY    45  44  95 CALM      30.07F
NEWARK         CLOUDY    46  45  96 CALM      30.08S FOG
MARION         CLEAR     43  41  93 CALM      30.08S FOG
LANCASTER      CLOUDY    46  44  93 CALM      30.08S FOG
ZANESVILLE     MOCLDY    47  44  90 CALM      30.07F
NEW PHILLY     FOG       49  48  97 CALM      30.08F VSB 1/2
$$



USA.gov is the U.S. government's official web portal to all federal, state and local government web resources and services.